TimeCST,TemperatureF,Dew PointF,Humidity,Sea Level PressureIn,VisibilityMPH,Wind Direction,Wind SpeedMPH,Gust SpeedMPH,PrecipitationIn,Events,Conditions,WindDirDegrees,DateUTC
12:52 AM,41.0,30.0,65,30.34,10.0,Calm,Calm,-,N/A,,Clear,0,2012-11-17 06:52:00
1:52 AM,41.0,30.0,65,30.34,10.0,SSE,3.5,-,N/A,,Clear,150,2012-11-17 07:52:00
2:52 AM,39.0,30.0,70,30.33,10.0,SE,5.8,-,N/A,,Partly Cloudy,140,2012-11-17 08:52:00
3:52 AM,39.9,30.0,68,30.33,10.0,SE,5.8,-,N/A,,Partly Cloudy,130,2012-11-17 09:52:00
4:52 AM,37.0,30.0,76,30.33,10.0,SE,4.6,-,N/A,,Partly Cloudy,140,2012-11-17 10:52:00
5:52 AM,36.0,28.9,76,30.34,10.0,South,6.9,-,N/A,,Partly Cloudy,170,2012-11-17 11:52:00
6:52 AM,34.0,28.9,82,30.37,10.0,South,8.1,-,N/A,,Partly Cloudy,170,2012-11-17 12:52:00
7:52 AM,36.0,30.0,79,30.38,10.0,South,5.8,-,N/A,,Partly Cloudy,170,2012-11-17 13:52:00
8:52 AM,44.1,35.1,71,30.38,10.0,South,9.2,-,N/A,,Partly Cloudy,170,2012-11-17 14:52:00
9:52 AM,51.1,33.1,50,30.38,10.0,South,13.8,-,N/A,,Partly Cloudy,180,2012-11-17 15:52:00
10:52 AM,55.9,28.9,36,30.38,10.0,South,17.3,-,N/A,,Partly Cloudy,170,2012-11-17 16:52:00
11:52 AM,57.9,30.0,35,30.35,10.0,South,13.8,21.9,N/A,,Partly Cloudy,170,2012-11-17 17:52:00
12:52 PM,60.1,30.0,32,30.32,10.0,South,13.8,-,N/A,,Partly Cloudy,170,2012-11-17 18:52:00
1:52 PM,61.0,28.9,30,30.28,10.0,South,16.1,-,N/A,,Partly Cloudy,170,2012-11-17 19:52:00
2:52 PM,62.1,28.0,28,30.27,10.0,South,15.0,20.7,N/A,,Partly Cloudy,170,2012-11-17 20:52:00
3:52 PM,61.0,28.0,29,30.26,10.0,SSE,15.0,-,N/A,,Scattered Clouds,160,2012-11-17 21:52:00
4:52 PM,55.9,28.9,36,30.27,10.0,SSE,11.5,-,N/A,,Mostly Cloudy,160,2012-11-17 22:52:00
5:52 PM,50.0,30.9,48,30.26,10.0,SE,9.2,-,N/A,,Mostly Cloudy,140,2012-11-17 23:52:00
6:52 PM,50.0,30.9,48,30.27,10.0,SSE,9.2,-,N/A,,Mostly Cloudy,150,2012-11-18 00:52:00
7:52 PM,48.9,30.0,48,30.26,10.0,SSE,8.1,-,N/A,,Mostly Cloudy,160,2012-11-18 01:52:00
8:52 PM,48.0,30.0,50,30.26,10.0,SSE,9.2,-,N/A,,Mostly Cloudy,160,2012-11-18 02:52:00
9:52 PM,46.0,30.0,54,30.26,10.0,SSE,9.2,-,N/A,,Scattered Clouds,150,2012-11-18 03:52:00
10:52 PM,45.0,30.0,56,30.26,10.0,SSE,8.1,-,N/A,,Mostly Cloudy,160,2012-11-18 04:52:00
11:52 PM,45.0,30.0,56,30.25,10.0,SSE,9.2,-,N/A,,Mostly Cloudy,150,2012-11-18 05:52:00